Location: Newark
(25.6108°S, 54.5803°W)
Time: 13:40:24
(UTC+00:00)

Courier 1B Rocket - Pass Details

Date: 03 November 2020
Orbit: 920 x 1202 km, 28.2° (Epoch: 01 December)

Event Time Altitude Azimuth Distance (km) Brightness Sun altitude
Rises 14:47:47 0° 272° (W) 3,707 8.0 77.0°
Reaches altitude 10° 14:51:42 10° 293° (WNW) 2,701 7.4 77.5°
Maximum altitude 14:55:20 15° 328° (NNW) 2,281 7.3 78.0°
Drops below altitude 10° 14:58:52 10° 2° (N) 2,623 7.6 78.4°
Sets 15:02:36 0° 24° (NNE) 3,542 8.1 78.8°
